Terra Bella
DateTemperatureDew Point
05/07 - 08:15 PM70.3°61.5°
05/07 - 08:00 PM71.9°61.1°
05/07 - 07:45 PM73.6°62.1°
05/07 - 07:30 PM75.9°62.1°
05/07 - 07:15 PM78.0°61.8°
05/07 - 07:00 PM79.8°61.2°
05/07 - 06:45 PM81.4°60.8°
05/07 - 06:30 PM82.7°60.0°
05/07 - 06:15 PM83.4°60.6°
05/07 - 06:00 PM85.3°60.4°
05/07 - 05:45 PM88.0°61.1°
05/07 - 05:30 PM88.2°60.9°
05/07 - 05:15 PM87.1°60.9°
05/07 - 05:00 PM89.1°61.7°
05/07 - 04:45 PM88.8°61.7°
05/07 - 04:30 PM89.1°62.2°
05/07 - 04:15 PM89.0°61.6°
05/07 - 04:00 PM88.6°61.6°
05/07 - 03:45 PM87.9°61.2°
05/07 - 03:30 PM87.9°61.7°
05/07 - 03:15 PM88.4°61.1°
05/07 - 03:00 PM88.0°62.1°
05/07 - 02:45 PM87.0°61.4°
05/07 - 02:30 PM86.9°60.8°
05/07 - 02:15 PM86.5°61.2°
05/07 - 02:00 PM85.9°61.1°
05/07 - 01:45 PM84.7°60.2°
05/07 - 01:30 PM84.7°60.0°
05/07 - 01:15 PM85.9°60.0°
05/07 - 01:00 PM85.8°59.8°
05/07 - 12:45 PM85.8°60.0°
05/07 - 12:30 PM83.5°59.2°
05/07 - 12:15 PM84.7°59.5°
05/07 - 12:00 PM83.6°59.3°
05/07 - 11:45 AM82.7°58.8°
05/07 - 11:30 AM82.1°58.7°
05/07 - 11:15 AM81.4°58.4°
05/07 - 11:00 AM81.1°59.0°
05/07 - 10:45 AM80.9°58.2°
05/07 - 10:30 AM80.0°57.9°
05/07 - 10:15 AM79.7°58.2°
05/07 - 10:00 AM78.2°57.6°
05/07 - 09:45 AM77.7°57.5°
05/07 - 09:30 AM76.6°57.3°
05/07 - 09:15 AM75.3°56.6°
05/07 - 09:00 AM75.3°56.5°
05/07 - 08:45 AM74.6°56.5°
05/07 - 08:30 AM74.5°56.4°
05/07 - 08:15 AM74.5°56.9°
05/07 - 08:00 AM73.3°56.6°
05/07 - 07:45 AM71.1°56.2°
05/07 - 07:30 AM69.4°56.8°
05/07 - 07:15 AM67.2°57.1°
05/07 - 07:00 AM64.0°57.9°
05/07 - 06:45 AM59.8°58.4°
05/07 - 06:30 AM56.1°56.1°
05/07 - 06:15 AM53.8°53.8°
05/07 - 06:00 AM51.3°51.3°
05/07 - 05:45 AM51.1°51.1°
05/07 - 05:30 AM51.1°51.1°
05/07 - 05:15 AM51.4°51.4°
05/07 - 05:00 AM51.5°51.5°
05/07 - 04:45 AM51.2°51.2°
05/07 - 04:30 AM51.4°51.4°
05/07 - 04:15 AM51.7°51.7°
05/07 - 04:00 AM52.1°52.1°
05/07 - 03:45 AM52.5°52.5°
05/07 - 03:30 AM53.0°53.0°
05/07 - 03:15 AM53.3°53.3°
05/07 - 03:00 AM53.3°53.0°
05/07 - 02:45 AM53.5°52.8°
05/07 - 02:30 AM53.9°52.7°
05/07 - 02:15 AM54.7°52.9°
05/07 - 02:00 AM55.3°52.8°
05/07 - 01:45 AM56.3°53.0°
05/07 - 01:30 AM57.8°53.5°
05/07 - 01:15 AM58.1°54.4°
05/07 - 01:00 AM57.1°54.0°
05/07 - 12:45 AM57.9°54.1°
05/07 - 12:30 AM58.1°54.4°
05/07 - 12:15 AM57.9°54.5°
05/07 - 12:00 AM57.3°54.5°
05/06 - 11:45 PM56.5°54.4°
05/06 - 11:30 PM56.1°53.7°
05/06 - 11:15 PM56.6°53.7°
05/06 - 11:00 PM57.0°53.6°
05/06 - 10:45 PM57.7°53.9°
05/06 - 10:30 PM58.4°53.9°
05/06 - 10:15 PM58.9°54.0°
05/06 - 10:00 PM59.5°54.3°
05/06 - 09:45 PM60.3°54.3°
05/06 - 09:30 PM60.7°54.7°
05/06 - 09:15 PM61.0°55.0°
05/06 - 09:00 PM61.6°55.3°
05/06 - 08:45 PM62.7°55.1°
05/06 - 08:30 PM63.9°54.8°
05/06 - 08:15 PM65.4°54.7°
05/06 - 08:00 PM66.7°54.6°
05/06 - 07:45 PM68.4°54.9°
05/06 - 07:30 PM70.0°55.1°
05/06 - 07:15 PM71.8°55.2°
05/06 - 07:00 PM73.3°54.9°
05/06 - 06:45 PM74.4°54.7°
05/06 - 06:30 PM75.7°54.9°
05/06 - 06:15 PM76.8°54.7°
05/06 - 06:00 PM78.4°55.5°
05/06 - 05:45 PM80.9°56.1°
05/06 - 05:30 PM81.3°56.3°
05/06 - 05:15 PM80.3°55.6°
05/06 - 05:00 PM82.4°56.1°
05/06 - 04:45 PM82.3°56.2°
05/06 - 04:30 PM82.8°56.5°
05/06 - 04:15 PM82.8°56.1°
05/06 - 04:00 PM82.6°56.1°
05/06 - 03:45 PM82.9°56.2°
05/06 - 03:30 PM81.7°55.8°
05/06 - 03:15 PM81.2°55.4°
05/06 - 03:00 PM81.2°55.2°
05/06 - 02:45 PM82.1°55.4°
05/06 - 02:30 PM82.0°56.0°
05/06 - 02:15 PM80.4°55.1°
05/06 - 02:00 PM79.7°55.2°
05/06 - 01:45 PM78.6°54.9°
05/06 - 01:30 PM77.4°53.7°
05/06 - 01:15 PM77.3°53.6°
05/06 - 01:00 PM78.5°54.6°
05/06 - 12:45 PM77.1°54.1°
05/06 - 12:30 PM77.5°54.0°
05/06 - 12:15 PM78.0°54.9°
05/06 - 12:00 PM75.7°54.0°
05/06 - 11:45 AM75.2°53.3°
05/06 - 11:30 AM75.5°54.0°
05/06 - 11:15 AM73.6°53.3°
05/06 - 11:00 AM72.4°53.4°
05/06 - 10:45 AM71.4°53.7°
05/06 - 10:30 AM72.3°54.5°
05/06 - 10:15 AM72.1°55.3°
05/06 - 10:00 AM71.0°55.1°
05/06 - 09:45 AM70.3°55.2°
05/06 - 09:30 AM69.1°54.8°
05/06 - 09:15 AM68.3°54.5°
05/06 - 09:00 AM67.6°54.1°
05/06 - 08:45 AM67.0°54.0°
05/06 - 08:30 AM66.6°53.8°
05/06 - 08:15 AM66.4°54.1°
05/06 - 08:00 AM65.5°54.1°
05/06 - 07:45 AM64.1°54.1°
05/06 - 07:30 AM61.8°54.1°
05/06 - 07:15 AM59.2°54.9°
05/06 - 07:00 AM56.4°55.6°
05/06 - 06:45 AM53.6°53.6°
05/06 - 06:30 AM51.1°51.1°
05/06 - 06:15 AM47.8°47.8°
05/06 - 06:00 AM46.1°46.1°
05/06 - 05:45 AM45.5°45.5°
05/06 - 05:30 AM45.5°45.5°
05/06 - 05:15 AM45.8°45.8°
05/06 - 05:00 AM45.9°45.9°
05/06 - 04:45 AM46.1°46.1°
05/06 - 04:30 AM46.3°46.3°
05/06 - 04:15 AM46.5°46.5°
05/06 - 04:00 AM46.8°46.8°
05/06 - 03:45 AM47.0°47.0°
05/06 - 03:30 AM46.9°46.9°
05/06 - 03:15 AM47.2°47.2°
05/06 - 03:00 AM47.7°47.7°
05/06 - 02:45 AM47.9°47.9°
05/06 - 02:30 AM47.6°47.6°
05/06 - 02:15 AM47.8°47.8°
05/06 - 02:00 AM48.1°48.1°
05/06 - 01:45 AM48.4°48.4°
05/06 - 01:30 AM48.8°48.8°
05/06 - 01:15 AM48.9°48.9°
05/06 - 01:00 AM49.2°49.2°
05/06 - 12:45 AM49.7°49.7°
05/06 - 12:30 AM50.3°50.3°
05/06 - 12:15 AM50.6°50.6°
05/06 - 12:00 AM51.3°50.9°
05/05 - 11:45 PM52.0°51.3°
05/05 - 11:30 PM52.8°51.8°
05/05 - 11:15 PM53.4°52.0°
05/05 - 11:00 PM54.0°52.3°
05/05 - 10:45 PM54.3°52.4°
05/05 - 10:30 PM54.4°52.0°
05/05 - 10:15 PM54.8°51.5°
05/05 - 10:00 PM56.0°51.7°
05/05 - 09:45 PM57.3°51.8°
05/05 - 09:30 PM58.7°51.7°
05/05 - 09:15 PM59.7°51.9°
05/05 - 09:00 PM60.3°51.8°